Time,TemperatureF,DewpointF,PressureIn,WindDirection,WindDirectionDegrees,WindSpeedMPH,WindSpeedGustMPH,Humidity,HourlyPrecipIn,Conditions,Clouds,dailyrainin,SolarRadiationWatts/m^2,SoftwareType,DateUTC
2013-03-24 00:03:00,33.0,26.0,-100.00,SE,139,0.0,4.0,76,0.00,,,0.00,0.000000,,2013-03-24 04:03:00,
2013-03-24 00:13:00,33.0,26.0,-100.00,SE,139,0.0,4.0,76,0.00,,,0.00,0.000000,,2013-03-24 04:13:00,
2013-03-24 00:23:00,31.0,26.0,-100.00,SE,142,0.0,0.0,82,0.00,,,0.00,0.000000,,2013-03-24 04:23:00,
2013-03-24 00:43:00,31.0,26.0,-100.00,SE,142,0.0,0.0,82,0.00,,,0.00,0.000000,,2013-03-24 04:43:00,
2013-03-24 00:53:00,31.0,26.0,-100.00,SE,142,0.0,0.0,82,0.00,,,0.00,0.000000,,2013-03-24 04:53:00,
2013-03-24 01:03:00,31.0,26.0,-100.00,SE,142,0.0,0.0,82,0.00,,,0.00,0.000000,,2013-03-24 05:03:00,
2013-03-24 01:13:00,31.0,26.0,-100.00,SE,142,0.0,0.0,82,0.00,,,0.00,0.000000,,2013-03-24 05:13:00,
2013-03-24 01:43:00,32.0,27.0,-100.00,SE,126,2.0,5.0,82,0.00,,,0.00,0.000000,,2013-03-24 05:43:00,
2013-03-24 01:52:00,32.0,27.0,-100.00,SE,126,2.0,5.0,82,0.00,,,0.00,0.000000,,2013-03-24 05:52:00,
2013-03-24 02:02:00,32.0,27.0,-100.00,SE,126,2.0,5.0,82,0.00,,,0.00,0.000000,,2013-03-24 06:02:00,
2013-03-24 02:12:00,32.0,27.0,-100.00,SE,126,2.0,5.0,82,0.00,,,0.00,0.000000,,2013-03-24 06:12:00,
2013-03-24 02:22:00,32.0,27.0,-100.00,SE,126,2.0,5.0,82,0.00,,,0.00,0.000000,,2013-03-24 06:22:00,
2013-03-24 02:42:00,31.0,26.0,-100.00,ESE,120,2.0,4.0,83,0.00,,,0.00,0.000000,,2013-03-24 06:42:00,
2013-03-24 02:52:00,31.0,26.0,-100.00,ESE,120,2.0,4.0,83,0.00,,,0.00,0.000000,,2013-03-24 06:52:00,
2013-03-24 03:02:00,31.0,26.0,-100.00,ESE,120,2.0,4.0,83,0.00,,,0.00,0.000000,,2013-03-24 07:02:00,
2013-03-24 03:12:00,31.0,26.0,-100.00,ESE,120,2.0,4.0,83,0.00,,,0.00,0.000000,,2013-03-24 07:12:00,
2013-03-24 03:22:00,31.0,26.0,-100.00,ESE,120,2.0,4.0,83,0.00,,,0.00,0.000000,,2013-03-24 07:22:00,
2013-03-24 03:42:00,30.0,26.0,-100.00,East,86,1.0,6.0,84,0.00,,,0.00,0.000000,,2013-03-24 07:42:00,
2013-03-24 03:52:00,30.0,26.0,-100.00,East,86,1.0,6.0,84,0.00,,,0.00,0.000000,,2013-03-24 07:52:00,
2013-03-24 04:03:00,30.0,26.0,-100.00,East,86,1.0,6.0,84,0.00,,,0.00,0.000000,,2013-03-24 08:03:00,
2013-03-24 04:12:00,30.0,26.0,-100.00,East,86,1.0,6.0,84,0.00,,,0.00,0.000000,,2013-03-24 08:12:00,
2013-03-24 04:22:00,30.0,26.0,-100.00,East,86,1.0,6.0,84,0.00,,,0.00,0.000000,,2013-03-24 08:22:00,
2013-03-24 04:42:00,30.0,26.0,-100.00,SE,124,1.0,6.0,84,0.00,,,0.00,0.000000,,2013-03-24 08:42:00,
2013-03-24 04:52:00,30.0,26.0,-100.00,SE,124,1.0,6.0,84,0.00,,,0.00,0.000000,,2013-03-24 08:52:00,
2013-03-24 05:02:00,30.0,26.0,-100.00,SE,124,1.0,6.0,84,0.00,,,0.00,0.000000,,2013-03-24 09:02:00,
2013-03-24 05:12:00,30.0,26.0,-100.00,SE,124,1.0,6.0,84,0.00,,,0.00,0.000000,,2013-03-24 09:12:00,
2013-03-24 05:22:00,30.0,26.0,-100.00,SE,124,1.0,6.0,84,0.00,,,0.00,0.000000,,2013-03-24 09:22:00,
2013-03-24 05:43:00,29.0,26.0,-100.00,East,97,1.0,5.0,88,0.00,,,0.00,0.000000,,2013-03-24 09:43:00,
2013-03-24 05:53:00,29.0,26.0,-100.00,East,97,1.0,5.0,88,0.00,,,0.00,0.000000,,2013-03-24 09:53:00,
2013-03-24 06:03:00,29.0,26.0,-100.00,East,97,1.0,5.0,88,0.00,,,0.00,0.000000,,2013-03-24 10:03:00,
2013-03-24 06:12:00,29.0,26.0,-100.00,East,97,1.0,5.0,88,0.00,,,0.00,0.000000,,2013-03-24 10:12:00,
2013-03-24 06:22:00,29.0,26.0,-100.00,East,97,1.0,5.0,88,0.00,,,0.00,0.000000,,2013-03-24 10:22:00,
2013-03-24 06:42:00,30.0,26.0,-100.00,ESE,103,1.0,4.0,86,0.00,,,0.00,0.000000,,2013-03-24 10:42:00,
2013-03-24 06:53:00,30.0,26.0,-100.00,ESE,103,1.0,4.0,86,0.00,,,0.00,0.000000,,2013-03-24 10:53:00,
2013-03-24 07:03:00,30.0,26.0,-100.00,ESE,103,1.0,4.0,86,0.00,,,0.00,0.000000,,2013-03-24 11:03:00,
2013-03-24 07:12:00,30.0,26.0,-100.00,ESE,103,1.0,4.0,86,0.00,,,0.00,0.000000,,2013-03-24 11:12:00,
2013-03-24 07:22:00,30.0,26.0,-100.00,ESE,103,1.0,4.0,86,0.00,,,0.00,0.000000,,2013-03-24 11:22:00,
2013-03-24 07:42:00,30.0,25.0,-100.00,ESE,109,3.0,6.0,82,0.00,,,0.00,0.000000,,2013-03-24 11:42:00,
2013-03-24 07:52:00,30.0,25.0,-100.00,ESE,109,3.0,6.0,82,0.00,,,0.00,0.000000,,2013-03-24 11:52:00,
2013-03-24 08:03:00,30.0,25.0,-100.00,ESE,109,3.0,6.0,82,0.00,,,0.00,0.000000,,2013-03-24 12:03:00,
2013-03-24 08:12:00,30.0,25.0,-100.00,ESE,109,3.0,6.0,82,0.00,,,0.00,0.000000,,2013-03-24 12:12:00,
2013-03-24 08:22:00,30.0,25.0,-100.00,ESE,109,3.0,6.0,82,0.00,,,0.00,0.000000,,2013-03-24 12:22:00,
2013-03-24 08:42:00,31.0,25.0,-100.00,ESE,123,4.0,10.0,78,0.00,,,0.00,16.000000,,2013-03-24 12:42:00,
2013-03-24 08:52:00,31.0,25.0,-100.00,ESE,123,4.0,10.0,78,0.00,,,0.00,16.000000,,2013-03-24 12:52:00,
2013-03-24 09:02:00,31.0,25.0,-100.00,ESE,123,4.0,10.0,78,0.00,,,0.00,16.000000,,2013-03-24 13:02:00,
2013-03-24 09:13:00,31.0,25.0,-100.00,ESE,123,4.0,10.0,78,0.00,,,0.00,16.000000,,2013-03-24 13:13:00,
2013-03-24 09:22:00,31.0,25.0,-100.00,ESE,123,4.0,10.0,78,0.00,,,0.00,16.000000,,2013-03-24 13:22:00,
2013-03-24 09:43:00,32.0,25.0,-100.00,SE,136,4.0,14.0,74,0.00,,,0.00,61.000000,,2013-03-24 13:43:00,
2013-03-24 09:52:00,32.0,25.0,-100.00,SE,136,4.0,14.0,74,0.00,,,0.00,61.000000,,2013-03-24 13:52:00,
2013-03-24 10:02:00,32.0,25.0,-100.00,SE,136,4.0,14.0,74,0.00,,,0.00,61.000000,,2013-03-24 14:02:00,
2013-03-24 10:12:00,32.0,25.0,-100.00,SE,136,4.0,14.0,74,0.00,,,0.00,61.000000,,2013-03-24 14:12:00,
2013-03-24 10:22:00,32.0,25.0,-100.00,SE,136,4.0,14.0,74,0.00,,,0.00,61.000000,,2013-03-24 14:22:00,
2013-03-24 10:43:00,34.0,24.0,-100.00,ESE,120,3.0,10.0,67,0.00,,,0.00,127.000000,,2013-03-24 14:43:00,
2013-03-24 10:53:00,34.0,24.0,-100.00,ESE,120,3.0,10.0,67,0.00,,,0.00,127.000000,,2013-03-24 14:53:00,
2013-03-24 11:02:00,34.0,24.0,-100.00,ESE,120,3.0,10.0,67,0.00,,,0.00,127.000000,,2013-03-24 15:02:00,
2013-03-24 11:12:00,34.0,24.0,-100.00,ESE,120,3.0,10.0,67,0.00,,,0.00,127.000000,,2013-03-24 15:12:00,
2013-03-24 11:22:00,34.0,24.0,-100.00,ESE,120,3.0,10.0,67,0.00,,,0.00,127.000000,,2013-03-24 15:22:00,
2013-03-24 11:23:00,36.0,23.0,-100.00,ESE,115,5.0,11.0,58,0.00,,,0.00,176.000000,,2013-03-24 15:23:00,
2013-03-24 11:43:00,36.0,23.0,-100.00,ESE,115,5.0,11.0,58,0.00,,,0.00,176.000000,,2013-03-24 15:43:00,
2013-03-24 11:53:00,36.0,23.0,-100.00,ESE,115,5.0,11.0,58,0.00,,,0.00,176.000000,,2013-03-24 15:53:00,
2013-03-24 12:03:00,36.0,23.0,-100.00,ESE,115,5.0,11.0,58,0.00,,,0.00,176.000000,,2013-03-24 16:03:00,
2013-03-24 12:13:00,36.0,23.0,-100.00,ESE,115,5.0,11.0,58,0.00,,,0.00,176.000000,,2013-03-24 16:13:00,
2013-03-24 12:23:00,40.0,23.0,-100.00,ESE,107,6.0,13.0,50,0.00,,,0.00,250.000000,,2013-03-24 16:23:00,
2013-03-24 12:43:00,40.0,23.0,-100.00,ESE,107,6.0,13.0,50,0.00,,,0.00,250.000000,,2013-03-24 16:43:00,
2013-03-24 12:53:00,40.0,23.0,-100.00,ESE,107,6.0,13.0,50,0.00,,,0.00,250.000000,,2013-03-24 16:53:00,
2013-03-24 13:03:00,40.0,23.0,-100.00,ESE,107,6.0,13.0,50,0.00,,,0.00,250.000000,,2013-03-24 17:03:00,
2013-03-24 13:12:00,40.0,23.0,-100.00,ESE,107,6.0,13.0,50,0.00,,,0.00,250.000000,,2013-03-24 17:12:00,
2013-03-24 13:43:00,40.0,23.0,-100.00,NNW,329,3.0,14.0,50,0.00,,,0.00,182.000000,,2013-03-24 17:43:00,
2013-03-24 13:53:00,40.0,23.0,-100.00,NNW,329,3.0,14.0,50,0.00,,,0.00,182.000000,,2013-03-24 17:53:00,
2013-03-24 14:03:00,40.0,23.0,-100.00,NNW,329,3.0,14.0,50,0.00,,,0.00,182.000000,,2013-03-24 18:03:00,
2013-03-24 14:12:00,40.0,23.0,-100.00,NNW,329,3.0,14.0,50,0.00,,,0.00,182.000000,,2013-03-24 18:12:00,
2013-03-24 14:22:00,40.0,23.0,-100.00,NNW,329,3.0,14.0,50,0.00,,,0.00,182.000000,,2013-03-24 18:22:00,
2013-03-24 14:43:00,38.0,23.0,-100.00,South,179,3.0,10.0,54,0.00,,,0.00,63.000000,,2013-03-24 18:43:00,
2013-03-24 14:53:00,38.0,23.0,-100.00,South,179,3.0,10.0,54,0.00,,,0.00,63.000000,,2013-03-24 18:53:00,
2013-03-24 15:03:00,38.0,23.0,-100.00,South,179,3.0,10.0,54,0.00,,,0.00,63.000000,,2013-03-24 19:03:00,
2013-03-24 15:12:00,38.0,23.0,-100.00,South,179,3.0,10.0,54,0.00,,,0.00,63.000000,,2013-03-24 19:12:00,
2013-03-24 15:22:00,38.0,23.0,-100.00,South,179,3.0,10.0,54,0.00,,,0.00,63.000000,,2013-03-24 19:22:00,
2013-03-24 15:43:00,38.0,24.0,-100.00,SE,128,4.0,9.0,57,0.00,,,-99.99,63.000000,,2013-03-24 19:43:00,
2013-03-24 15:53:00,38.0,24.0,-100.00,SE,128,4.0,9.0,57,0.00,,,-99.99,63.000000,,2013-03-24 19:53:00,
2013-03-24 16:03:00,38.0,24.0,-100.00,SE,128,4.0,9.0,57,0.00,,,-99.99,63.000000,,2013-03-24 20:03:00,
2013-03-24 16:12:00,38.0,24.0,-100.00,SE,128,4.0,9.0,57,0.00,,,-99.99,63.000000,,2013-03-24 20:12:00,
2013-03-24 16:22:00,38.0,24.0,-100.00,SE,128,4.0,9.0,57,0.00,,,-99.99,63.000000,,2013-03-24 20:22:00,
2013-03-24 16:43:00,33.0,33.0,-100.00,ESE,102,4.0,15.0,100,0.00,,,0.00,59.000000,,2013-03-24 20:43:00,
2013-03-24 16:53:00,33.0,33.0,-100.00,ESE,102,4.0,15.0,100,0.00,,,0.00,59.000000,,2013-03-24 20:53:00,
2013-03-24 17:03:00,33.0,33.0,-100.00,ESE,102,4.0,15.0,100,0.00,,,0.00,59.000000,,2013-03-24 21:03:00,
2013-03-24 17:12:00,33.0,33.0,-100.00,ESE,102,4.0,15.0,100,0.00,,,0.00,59.000000,,2013-03-24 21:12:00,
2013-03-24 17:22:00,33.0,33.0,-100.00,ESE,102,4.0,15.0,100,0.00,,,0.00,59.000000,,2013-03-24 21:22:00,
2013-03-24 17:23:00,34.0,34.0,-100.00,ESE,112,3.0,8.0,100,0.01,,,0.01,61.000000,,2013-03-24 21:23:00,
2013-03-24 17:43:00,34.0,34.0,-100.00,ESE,112,3.0,8.0,100,0.01,,,0.01,61.000000,,2013-03-24 21:43:00,
2013-03-24 17:53:00,34.0,34.0,-100.00,ESE,112,3.0,8.0,100,0.01,,,0.01,61.000000,,2013-03-24 21:53:00,
2013-03-24 18:03:00,34.0,34.0,-100.00,ESE,112,3.0,8.0,100,0.01,,,0.01,61.000000,,2013-03-24 22:03:00,
2013-03-24 18:13:00,34.0,34.0,-100.00,ESE,112,3.0,8.0,100,0.01,,,0.01,61.000000,,2013-03-24 22:13:00,
2013-03-24 18:43:00,36.0,36.0,-100.00,East,99,1.0,9.0,100,0.00,,,0.01,61.000000,,2013-03-24 22:43:00,
2013-03-24 18:53:00,36.0,36.0,-100.00,East,99,1.0,9.0,100,0.00,,,0.01,61.000000,,2013-03-24 22:53:00,
2013-03-24 19:03:00,36.0,36.0,-100.00,East,99,1.0,9.0,100,0.00,,,0.01,61.000000,,2013-03-24 23:03:00,
2013-03-24 19:12:00,36.0,36.0,-100.00,East,99,1.0,9.0,100,0.00,,,0.01,61.000000,,2013-03-24 23:12:00,
2013-03-24 19:22:00,36.0,36.0,-100.00,East,99,1.0,9.0,100,0.00,,,0.01,61.000000,,2013-03-24 23:22:00,
2013-03-24 19:43:00,35.0,35.0,-100.00,East,97,1.0,4.0,100,0.00,,,0.01,8.000000,,2013-03-24 23:43:00,
2013-03-24 19:53:00,35.0,35.0,-100.00,East,97,1.0,4.0,100,0.00,,,0.01,8.000000,,2013-03-24 23:53:00,
2013-03-24 20:02:00,35.0,35.0,-100.00,East,97,1.0,4.0,100,0.00,,,0.01,8.000000,,2013-03-25 00:02:00,
2013-03-24 20:12:00,35.0,35.0,-100.00,East,97,1.0,4.0,100,0.00,,,0.01,8.000000,,2013-03-25 00:12:00,
2013-03-24 20:22:00,35.0,35.0,-100.00,East,97,1.0,4.0,100,0.00,,,0.01,8.000000,,2013-03-25 00:22:00,
2013-03-24 20:43:00,35.0,35.0,-100.00,ENE,75,1.0,5.0,100,0.00,,,0.01,0.000000,,2013-03-25 00:43:00,
2013-03-24 20:53:00,35.0,35.0,-100.00,ENE,75,1.0,5.0,100,0.00,,,0.01,0.000000,,2013-03-25 00:53:00,
2013-03-24 21:02:00,35.0,35.0,-100.00,ENE,75,1.0,5.0,100,0.00,,,0.01,0.000000,,2013-03-25 01:02:00,
2013-03-24 21:12:00,35.0,35.0,-100.00,ENE,75,1.0,5.0,100,0.00,,,0.01,0.000000,,2013-03-25 01:12:00,
2013-03-24 21:22:00,35.0,35.0,-100.00,ENE,75,1.0,5.0,100,0.00,,,0.01,0.000000,,2013-03-25 01:22:00,
2013-03-24 21:42:00,36.0,36.0,-100.00,SE,132,3.0,9.0,100,0.00,,,0.01,0.000000,,2013-03-25 01:42:00,
2013-03-24 21:53:00,36.0,36.0,-100.00,SE,132,3.0,9.0,100,0.00,,,0.01,0.000000,,2013-03-25 01:53:00,
2013-03-24 22:02:00,36.0,36.0,-100.00,SE,132,3.0,9.0,100,0.00,,,0.01,0.000000,,2013-03-25 02:02:00,
2013-03-24 22:12:00,36.0,36.0,-100.00,SE,132,3.0,9.0,100,0.00,,,0.01,0.000000,,2013-03-25 02:12:00,
2013-03-24 22:22:00,36.0,36.0,-100.00,SE,132,3.0,9.0,100,0.00,,,0.01,0.000000,,2013-03-25 02:22:00,
2013-03-24 22:23:00,36.0,35.0,-100.00,ESE,111,3.0,11.0,97,0.00,,,0.01,0.000000,,2013-03-25 02:23:00,
2013-03-24 22:43:00,36.0,35.0,-100.00,ESE,111,3.0,11.0,97,0.00,,,0.01,0.000000,,2013-03-25 02:43:00,
2013-03-24 22:52:00,36.0,35.0,-100.00,ESE,111,3.0,11.0,97,0.00,,,0.01,0.000000,,2013-03-25 02:52:00,
2013-03-24 23:03:00,36.0,35.0,-100.00,ESE,111,3.0,11.0,97,0.00,,,0.01,0.000000,,2013-03-25 03:03:00,
2013-03-24 23:13:00,36.0,35.0,-100.00,ESE,111,3.0,11.0,97,0.00,,,0.01,0.000000,,2013-03-25 03:13:00,
2013-03-24 23:43:00,35.0,35.0,-100.00,SE,129,3.0,11.0,99,0.01,,,0.02,0.000000,,2013-03-25 03:43:00,
2013-03-24 23:53:00,35.0,35.0,-100.00,SE,129,3.0,11.0,99,0.01,,,0.02,0.000000,,2013-03-25 03:53:00,